Location: Newark
(40.2667°N, 44.5667°E)
Time: 20:02:45
(UTC+00:00)

N. Korean satellite - Visible Passes

Search period start: 21 September 2020 00:00
Search period end: 01 October 2020 00:00
Orbit: 455 x 503 km, 97.2° (Epoch: 21 September)

Date Brightness Start Highest point End Pass type
(mag) Time Alt. Az. Time Alt. Az. Time Alt. Az.
22 Sep 9.1 01:58:44 10° NE 02:01:52 26° E 02:04:56 10° SSE visible
23 Sep 10.0 01:34:00 10° ENE 01:35:41 13° E 01:37:21 10° ESE visible
25 Sep 8.1 02:13:46 10° NNE 02:17:14 41° E 02:20:38 10° S visible
26 Sep 9.6 01:48:25 10° NE 01:51:06 19° E 01:53:45 10° SE visible
29 Sep 8.8 02:03:15 10° NNE 02:06:28 30° E 02:09:36 10° SSE visible
30 Sep 9.9 01:38:16 10° ENE 01:40:17 14° E 01:42:16 10° SE visible
